Buckhead, Georgia, United States (30625)
Lat: 33.57N, Lon: 83.36W
Wx Zone: GAZ049
Local Info
Past Weather Observations for Today

NOTE: This archive is for the closest National Weather Service station to Buckhead. Information may differ from the station used for current weather conditions.

Click here for Long-term Archive

Time Weather Temperature Dewpoint Humidity Pressure Winds Precip Visibility
09:55
Clear
64°F / 18°C 54°F / 12°C 68% 30.01 in
(1016 mb)
W 4.6 mph
(W 7 kph)
- 10SM
09:35
Clear
63°F / 17°C 55°F / 13°C 77% 30.01 in
(1016 mb)
W 3.5 mph
(W 6 kph)
- 10SM
09:15
Clear
61°F / 16°C 54°F / 12°C 77% 30.01 in
(1016 mb)
NW 3.5 mph
(NW 6 kph)
- 10SM
08:55
Clear
59°F / 15°C 54°F / 12°C 82% 30.01 in
(1016 mb)
NW 3.5 mph
(NW 6 kph)
- 10SM
08:35
Clear
55°F / 13°C 54°F / 12°C 94% 30.01 in
(1016 mb)
WNW 3.5 mph
(WNW 6 kph)
- 10SM
08:15
Clear
55°F / 13°C 54°F / 12°C 94% 29.98 in
(1015 mb)
NW 3.5 mph
(NW 6 kph)
- 10SM
07:55
Clear
54°F / 12°C 52°F / 11°C 94% 29.98 in
(1015 mb)
Calm - 10SM
07:35
Clear
54°F / 12°C 52°F / 11°C 94% 29.98 in
(1015 mb)
W 3.5 mph
(W 6 kph)
- 10SM
07:15
Clear
52°F / 11°C 52°F / 11°C 100% 29.98 in
(1015 mb)
Calm - 10SM
06:55
Clear
52°F / 11°C 52°F / 11°C 100% 29.98 in
(1015 mb)
W 3.5 mph
(W 6 kph)
- 7SM
06:35
Clear
52°F / 11°C 52°F / 11°C 100% 29.98 in
(1015 mb)
Calm - 10SM
06:15
Clear
52°F / 11°C 52°F / 11°C 100% 29.98 in
(1015 mb)
Calm - 7SM
05:55
Clear
52°F / 11°C 52°F / 11°C 100% 29.98 in
(1015 mb)
Calm - 7SM
05:35
Clear
52°F / 11°C 52°F / 11°C 100% 29.95 in
(1014 mb)
Calm - 7SM
05:15
Clear
52°F / 11°C 50°F / 10°C 94% 29.95 in
(1014 mb)
Calm - 10SM
04:55
Clear
54°F / 12°C 52°F / 11°C 94% 29.95 in
(1014 mb)
Calm - 10SM
04:35
Clear
54°F / 12°C 54°F / 12°C 100% 29.95 in
(1014 mb)
Calm - 10SM
04:15
Clear
54°F / 12°C 54°F / 12°C 100% 29.95 in
(1014 mb)
Calm - 10SM
03:55
Clear
54°F / 12°C 54°F / 12°C 100% 29.95 in
(1014 mb)
Calm - 10SM
03:35
Clear
55°F / 13°C 54°F / 12°C 94% 29.95 in
(1014 mb)
Calm - 10SM
03:15
Clear
55°F / 13°C 54°F / 12°C 94% 29.95 in
(1014 mb)
Calm - 10SM
02:55
Clear
54°F / 12°C 54°F / 12°C 100% 29.98 in
(1015 mb)
Calm - 10SM
02:35
Clear
54°F / 12°C 54°F / 12°C 100% 29.98 in
(1015 mb)
Calm - 10SM
02:15
Clear
54°F / 12°C 54°F / 12°C 100% 29.98 in
(1015 mb)
Calm - 7SM
01:55
Clear
54°F / 12°C 54°F / 12°C 100% 29.98 in
(1015 mb)
Calm - 10SM
01:35
Clear
54°F / 12°C 54°F / 12°C 100% 29.98 in
(1015 mb)
Calm - 10SM
01:15
Clear
54°F / 12°C 54°F / 12°C 100% 29.98 in
(1015 mb)
Calm - 10SM
00:55
Clear
54°F / 12°C 54°F / 12°C 100% 29.98 in
(1015 mb)
Calm - 10SM
00:35
Clear
55°F / 13°C 54°F / 12°C 94% 29.98 in
(1015 mb)
Calm - 10SM
00:15
Clear
57°F / 14°C 54°F / 12°C 88% 29.98 in
(1015 mb)
Calm - 10SM
Time Weather Temperature Dewpoint Humidity Pressure Winds Precip Visibility


Weather for websites

WeatherForYou.com, LLC is not responsible for any damages or problems caused by this service. Current weather conditions are obtained from the closest station including government and personal stations which may have varying degrees of accuracy. Weather forecasts are derived from the NOAA NDFD. Like all things, this site belongs to Jesus Christ... He just trusts me to maintain it. If you have any questions or comments email webmaster@weatherforyou.com

Copyright © 2014, WeatherForYou.com LLC. All rights reserved.